Location: St. Louis
(38.6270°N, 90.1994°W)
Time: 01:59:42
(UTC-06:00)

Vanguard 2 - Pass Details

Date: 08 December 2021
Orbit: 553 x 2936 km, 32.9° (Epoch: 16 January)

Event Time Altitude Azimuth Distance (km) Brightness Sun altitude
Rises 13:06:46 0° 253° (WSW) 2,726 10.8 26.2°
Reaches altitude 10° 13:08:52 10° 246° (WSW) 1,887 10.3 26.1°
Maximum altitude 13:12:48 43° 174° (S) 947 9.4 25.8°
Drops below altitude 10° 13:18:06 10° 104° (ESE) 2,543 10.2 25.4°
Sets 13:21:23 0° 98° (E) 3,823 11.0 25.2°
